• In Belarus
  • List of Countries
  • For 7 days
  • Water Temperature
  • Satellite Maps
  • Weather Map
  • Weather Widgets
  • user-avatar
    Login

    Hourly Weather Oran

    Today, 27 July, Thursday

    Time Temperature Precipitation Wind Pressure Humidity
    00:00 +30°C° 0 mm 2 mps 751 mmHg 56%
    01:00 +29°C° 0 mm 2 mps 751 mmHg 57%
    02:00 +29°C° 0 mm 2 mps 751 mmHg 58%
    03:00 +28°C° 0 mm 2 mps 750 mmHg 59%
    04:00 +29°C° 0 mm 1 mps 751 mmHg 58%
    05:00 +29°C° 0 mm 1 mps 751 mmHg 58%
    06:00 +29°C° 0 mm 1 mps 751 mmHg 58%
    07:00 +30°C° 0 mm 1 mps 751 mmHg 53%
    08:00 +31°C° 0 mm 1 mps 751 mmHg 47%
    09:00 +33°C° 0 mm 1 mps 751 mmHg 41%
    10:00 +35°C° 0 mm 2 mps 751 mmHg 36%
    11:00 +37°C° 0 mm 3 mps 751 mmHg 32%
    12:00 +38°C° 0 mm 3 mps 751 mmHg 29%
    13:00 +40°C° 0 mm 4 mps 751 mmHg 28%
    14:00 +40°C° 0 mm 4 mps 750 mmHg 27%
    15:00 +41°C° 0 mm 4 mps 750 mmHg 26%
    16:00 +40°C° 0 mm 4 mps 750 mmHg 27%
    17:00 +40°C° 0 mm 4 mps 750 mmHg 28%
    18:00 +38°C° 0 mm 4 mps 750 mmHg 28%
    19:00 +37°C° 0 mm 3 mps 750 mmHg 30%
    20:00 +36°C° 0 mm 2 mps 750 mmHg 32%
    21:00 +35°C° 0 mm 2 mps 750 mmHg 34%
    22:00 +34°C° 0 mm 2 mps 750 mmHg 36%
    23:00 +33°C° 0 mm 1 mps 750 mmHg 38%

    Tomorrow, 28 July, Friday

    Time Temperature Precipitation Wind Pressure Humidity
    00:00 +32°C° 0 mm 1 mps 750 mmHg 40%
    01:00 +31°C° 0 mm 1 mps 750 mmHg 42%
    02:00 +31°C° 0 mm 1 mps 750 mmHg 44%
    03:00 +30°C° 0 mm 2 mps 750 mmHg 46%
    04:00 +30°C° 0 mm 1 mps 750 mmHg 48%
    05:00 +30°C° 0 mm 1 mps 750 mmHg 49%
    06:00 +30°C° 0 mm 1 mps 750 mmHg 51%
    07:00 +31°C° 0 mm 1 mps 750 mmHg 47%
    08:00 +32°C° 0 mm 1 mps 750 mmHg 42%
    09:00 +33°C° 0 mm 1 mps 750 mmHg 38%
    10:00 +36°C° 0 mm 2 mps 750 mmHg 35%
    11:00 +37°C° 0 mm 2 mps 750 mmHg 32%
    12:00 +39°C° 0 mm 3 mps 750 mmHg 28%
    13:00 +39°C° 0 mm 3 mps 750 mmHg 29%
    14:00 +40°C° 0 mm 4 mps 750 mmHg 29%
    15:00 +40°C° 0 mm 4 mps 749 mmHg 29%
    16:00 +38°C° 0 mm 3 mps 749 mmHg 31%
    17:00 +37°C° 0 mm 3 mps 750 mmHg 33%
    18:00 +36°C° 0 mm 2 mps 750 mmHg 34%
    19:00 +35°C° 0 mm 2 mps 750 mmHg 36%
    20:00 +34°C° 0 mm 2 mps 751 mmHg 37%
    21:00 +33°C° 0 mm 1 mps 751 mmHg 39%
    22:00 +32°C° 0 mm 1 mps 751 mmHg 40%
    23:00 +32°C° 0 mm 1 mps 751 mmHg 42%

    Day after tomorrow, 29 July, Saturday

    Time Temperature Precipitation Wind Pressure Humidity
    00:00 +31°C° 0 mm 1 mps 751 mmHg 43%
    01:00 +31°C° 0 mm 1 mps 751 mmHg 45%
    02:00 +30°C° 0 mm 1 mps 751 mmHg 46%
    03:00 +30°C° 0 mm 1 mps 750 mmHg 48%
    04:00 +30°C° 0 mm 1 mps 751 mmHg 48%
    05:00 +28°C° 0 mm 0 mps 751 mmHg 48%
    06:00 +28°C° 0 mm 0 mps 751 mmHg 49%
    07:00 +29°C° 0 mm 0 mps 751 mmHg 43%
    08:00 +33°C° 0 mm 1 mps 752 mmHg 38%
    09:00 +34°C° 0 mm 1 mps 752 mmHg 33%
    10:00 +35°C° 0 mm 1 mps 752 mmHg 29%
    11:00 +38°C° 0 mm 2 mps 752 mmHg 25%
    12:00 +39°C° 0 mm 3 mps 752 mmHg 22%
    13:00 +40°C° 0 mm 3 mps 751 mmHg 22%
    14:00 +40°C° 0 mm 3 mps 751 mmHg 21%
    15:00 +41°C° 0 mm 4 mps 751 mmHg 21%
    16:00 +39°C° 0 mm 3 mps 751 mmHg 23%
    17:00 +38°C° 0 mm 3 mps 751 mmHg 25%
    18:00 +37°C° 0 mm 2 mps 751 mmHg 26%
    19:00 +37°C° 0 mm 2 mps 751 mmHg 28%
    20:00 +35°C° 0 mm 1 mps 751 mmHg 30%
    21:00 +34°C° 0 mm 1 mps 752 mmHg 32%
    22:00 +33°C° 0 mm 1 mps 751 mmHg 33%
    23:00 +33°C° 0 mm 1 mps 751 mmHg 35%

    30 July, Sunday

    Time Temperature Precipitation Wind Pressure Humidity
    00:00 +30°C° 0 mm 0 mps 751 mmHg 36%
    01:00 +30°C° 0 mm 0 mps 751 mmHg 37%
    02:00 +32°C° 0 mm 1 mps 751 mmHg 39%
    03:00 +31°C° 0 mm 1 mps 750 mmHg 40%
    04:00 +31°C° 0 mm 1 mps 750 mmHg 40%
    05:00 +31°C° 0 mm 1 mps 750 mmHg 41%
    06:00 +31°C° 0 mm 1 mps 750 mmHg 41%
    07:00 +32°C° 0 mm 1 mps 750 mmHg 36%
    08:00 +34°C° 0 mm 1 mps 751 mmHg 31%
    09:00 +35°C° 0 mm 1 mps 751 mmHg 26%
    10:00 +38°C° 0 mm 2 mps 751 mmHg 24%
    11:00 +39°C° 0 mm 3 mps 750 mmHg 21%
    12:00 +40°C° 0 mm 3 mps 750 mmHg 19%
    13:00 +40°C° 0 mm 3 mps 750 mmHg 18%
    14:00 +40°C° 0 mm 3 mps 749 mmHg 17%
    15:00 +42°C° 0 mm 3 mps 749 mmHg 16%
    16:00 +40°C° 0 mm 3 mps 749 mmHg 17%
    17:00 +39°C° 0 mm 2 mps 748 mmHg 18%
    18:00 +38°C° 0 mm 2 mps 748 mmHg 19%
    19:00 +38°C° 0 mm 2 mps 748 mmHg 20%
    20:00 +36°C° 0 mm 1 mps 749 mmHg 21%
    21:00 +35°C° 0 mm 1 mps 749 mmHg 23%
    22:00 +35°C° 0.1 mm 1 mps 749 mmHg 24%
    23:00 +34°C° 0.1 mm 1 mps 749 mmHg 25%

    31 July, Monday

    Time Temperature Precipitation Wind Pressure Humidity
    00:00 +34°C° 0.1 mm 1 mps 749 mmHg 26%
    01:00 +33°C° 0.1 mm 1 mps 748 mmHg 29%
    02:00 +32°C° 0.1 mm 1 mps 748 mmHg 31%
    03:00 +31°C° 0.1 mm 2 mps 747 mmHg 34%
    04:00 +31°C° 0 mm 1 mps 748 mmHg 34%
    05:00 +31°C° 0 mm 1 mps 748 mmHg 34%
    06:00 +31°C° 0 mm 1 mps 748 mmHg 35%
    07:00 +32°C° 0 mm 1 mps 748 mmHg 31%
    08:00 +34°C° 0 mm 1 mps 748 mmHg 27%
    09:00 +35°C° 0 mm 1 mps 748 mmHg 24%
    10:00 +38°C° 0 mm 2 mps 748 mmHg 22%
    11:00 +39°C° 0 mm 3 mps 748 mmHg 20%
    12:00 +41°C° 0 mm 4 mps 748 mmHg 19%
    13:00 +41°C° 0.1 mm 4 mps 747 mmHg 20%
    14:00 +40°C° 0.1 mm 4 mps 747 mmHg 22%
    15:00 +38°C° 0.1 mm 4 mps 747 mmHg 24%
    16:00 +38°C° 0.1 mm 4 mps 747 mmHg 25%
    17:00 +37°C° 0.1 mm 4 mps 747 mmHg 27%
    18:00 +36°C° 0.1 mm 3 mps 747 mmHg 29%
    19:00 +35°C° 0 mm 3 mps 747 mmHg 31%
    20:00 +35°C° 0 mm 3 mps 748 mmHg 33%
    21:00 +34°C° 0 mm 3 mps 748 mmHg 35%
    22:00 +34°C° 0.1 mm 4 mps 748 mmHg 35%
    23:00 +33°C° 0.1 mm 4 mps 749 mmHg 36%

    1 August, Tuesday

    Time Temperature Precipitation Wind Pressure Humidity
    00:00 +33°C° 0.1 mm 4 mps 749 mmHg 36%
    01:00 +33°C° 0.1 mm 5 mps 749 mmHg 36%
    02:00 +33°C° 0.1 mm 5 mps 748 mmHg 37%
    03:00 +32°C° 0.1 mm 5 mps 748 mmHg 37%
    04:00 +32°C° 0.1 mm 5 mps 749 mmHg 37%
    05:00 +32°C° 0.1 mm 4 mps 749 mmHg 38%
    06:00 +30°C° 0.1 mm 4 mps 749 mmHg 38%
    07:00 +32°C° 0 mm 4 mps 749 mmHg 34%
    08:00 +33°C° 0 mm 4 mps 750 mmHg 29%
    09:00 +35°C° 0 mm 4 mps 750 mmHg 25%
    10:00 +36°C° 0 mm 4 mps 750 mmHg 23%
    11:00 +37°C° 0 mm 5 mps 750 mmHg 22%
    12:00 +39°C° 0 mm 5 mps 750 mmHg 20%
    13:00 +39°C° 0 mm 5 mps 750 mmHg 21%
    14:00 +38°C° 0 mm 4 mps 750 mmHg 22%
    15:00 +37°C° 0 mm 4 mps 749 mmHg 23%
    16:00 +37°C° 0.1 mm 3 mps 749 mmHg 24%
    17:00 +37°C° 0.1 mm 3 mps 750 mmHg 25%
    18:00 +36°C° 0.1 mm 3 mps 750 mmHg 25%
    19:00 +35°C° 0 mm 2 mps 750 mmHg 28%
    20:00 +34°C° 0 mm 1 mps 750 mmHg 30%
    21:00 +33°C° 0 mm 1 mps 751 mmHg 32%
    22:00 +33°C° 0 mm 1 mps 751 mmHg 33%
    23:00 +32°C° 0 mm 1 mps 751 mmHg 33%
    Show more